Sexton Summit, OR

4:50 PM PST on February 24, 2018 (GMT -0800)
Sexton Summit

Weather History for KSXT - February, 2013

Change the Weather History Date:

Saturday, February 9, 2013

  Actual Average Record
Temperature  
Mean Temperature 29 °F -  
Max Temperature 34 °F 40 °F 60 °F (2016)
Min Temperature 24 °F 30 °F 33 °F (2015)
Degree Days  
Heating Degree Days 36    
Moisture  
Dew Point 26 °F    
Average Humidity 92    
Maximum Humidity 100    
Minimum Humidity 79    
Precipitation  
Precipitation 0.00 in - - ()
Sea Level Pressure  
Sea Level Pressure 30.18 in    
Wind  
Wind Speed 8 mph (North)    
Max Wind Speed 14 mph    
Max Gust Speed 26 mph    
Visibility 8 miles    
Events Fog    
Averages and records for this station are not official NWS values.
T = Trace of Precipitation, MM = Missing Value Source: NWS Daily Summary

Daily Weather History Graph

Daily Weather History Graph

Search for Another Location

Airport or City:

Trip Planner

Search our weather history database for the weather conditions in past years. The results will help you decide how hot, cold, wet, or windy it might be!

Date:

Astronomy

Feb. 09, 2013 Rise Set
Actual Time 7:17 AM PST 5:38 PM PST
Civil Twilight 6:48 AM PST 6:07 PM PST
Nautical Twilight 6:15 AM PST 6:40 PM PST
Astronomical Twilight 5:42 AM PST 7:13 PM PST
Moon 6:32 AM PST (2/9) 5:28 PM PST (2/9)
Length of Visible Light 11h 18m
Length of Day
10h 20m
Waning Crescent, 0% of the Moon is Illuminated
Feb 9
Waning Crescent
Feb 9
New
Feb 17
First Quarter
Feb 25
Full
Mar 4
Last Quarter

Hourly Weather History & Observations

Time (PST) Temp. Windchill Dew Point Humidity Pressure Visibility Wind Dir Wind Speed Gust Speed Precip Events Conditions
12:37 AM 24.8 °F 16.9 °F 24.8 °F 100% 30.12 in 10.0 mi Variable 6.9 mph - N/A   Overcast
12:56 AM 26.1 °F 18.4 °F 24.1 °F 92% 30.21 in 8.0 mi Variable 6.9 mph 19.6 mph N/A   Overcast
1:20 AM 26.6 °F 18.2 °F 24.8 °F 93% 30.11 in 10.0 mi North 8.1 mph 21.9 mph N/A   Overcast
1:56 AM 26.1 °F 15.0 °F 23.0 °F 88% 30.21 in 10.0 mi North 12.7 mph 21.9 mph N/A   Overcast
2:10 AM 26.6 °F 18.2 °F 24.8 °F 93% 30.10 in 10.0 mi North 8.1 mph 19.6 mph N/A   Overcast
2:21 AM 24.8 °F 12.9 °F 23.0 °F 93% 30.10 in 10.0 mi North 13.8 mph 24.2 mph N/A   Overcast
2:56 AM 25.0 °F 18.1 °F 23.0 °F 92% 30.21 in 10.0 mi Variable 5.8 mph - N/A   Mostly Cloudy
3:33 AM 24.8 °F 16.9 °F 23.0 °F 93% 30.10 in 10.0 mi Variable 6.9 mph - N/A   Overcast
3:56 AM 25.0 °F 18.1 °F 23.0 °F 92% 30.21 in 10.0 mi Variable 5.8 mph 16.1 mph N/A   Overcast
4:56 AM 25.0 °F 16.3 °F 23.0 °F 92% 30.22 in 10.0 mi North 8.1 mph 18.4 mph N/A   Overcast
5:02 AM 24.8 °F 16.9 °F 23.0 °F 93% 30.11 in 10.0 mi Variable 6.9 mph - N/A   Overcast
5:10 AM 24.8 °F 14.6 °F 23.0 °F 93% 30.11 in 10.0 mi North 10.4 mph 18.4 mph N/A   Overcast
5:46 AM 24.8 °F 17.9 °F 24.8 °F 100% 30.11 in 10.0 mi Variable 5.8 mph - N/A   Overcast
5:56 AM 25.0 °F 19.3 °F 24.1 °F 96% 30.24 in 9.0 mi Variable 4.6 mph - N/A   Overcast
6:41 AM 24.8 °F 14.6 °F 24.8 °F 100% 30.12 in 2.5 mi North 10.4 mph - N/A   Overcast
6:56 AM 25.0 °F 18.1 °F 24.1 °F 96% 30.24 in 6.0 mi Variable 5.8 mph - N/A   Overcast
7:46 AM 24.8 °F 17.9 °F 23.0 °F 93% 30.12 in 10.0 mi Variable 5.8 mph - N/A   Overcast
7:56 AM 25.0 °F 14.8 °F 23.0 °F 92% 30.25 in 10.0 mi North 10.4 mph 19.6 mph N/A   Mostly Cloudy
8:23 AM 24.8 °F 16.9 °F 23.0 °F 93% 30.12 in 10.0 mi NNE 6.9 mph 17.3 mph N/A   Scattered Clouds
8:42 AM 26.6 °F 20.0 °F 24.8 °F 93% 30.13 in 7.0 mi Variable 5.8 mph - N/A   Mostly Cloudy
8:56 AM 26.1 °F 18.4 °F 24.1 °F 92% 30.25 in 9.0 mi Variable 6.9 mph - N/A   Mostly Cloudy
9:43 AM 26.6 °F 21.2 °F 24.8 °F 93% 30.14 in 1.8 mi North 4.6 mph - N/A   Overcast
9:56 AM 28.0 °F 22.8 °F 26.1 °F 92% 30.25 in 4.0 mi NNE 4.6 mph - N/A   Overcast
10:56 AM 28.9 °F 22.8 °F 26.1 °F 89% 30.27 in 10.0 mi Variable 5.8 mph - N/A   Mostly Cloudy
11:21 AM 30.2 °F 25.4 °F 26.6 °F 86% 30.16 in 10.0 mi North 4.6 mph - N/A   Overcast
11:56 AM 30.0 °F 24.1 °F 26.1 °F 85% 30.26 in 10.0 mi North 5.8 mph - N/A   Partly Cloudy
12:56 PM 30.9 °F 27.5 °F 28.0 °F 89% 30.23 in 10.0 mi Variable 3.5 mph - N/A   Partly Cloudy
1:56 PM 34.0 °F 31.0 °F 28.0 °F 79% 30.23 in 10.0 mi Variable 3.5 mph - N/A   Partly Cloudy
2:25 PM 33.8 °F 30.8 °F 28.4 °F 81% 30.12 in 10.0 mi Variable 3.5 mph - N/A   Mostly Cloudy
2:36 PM 33.8 °F 30.8 °F 28.4 °F 81% 30.13 in 10.0 mi Variable 3.5 mph - N/A   Scattered Clouds
2:56 PM 34.0 °F 28.8 °F 28.9 °F 82% 30.22 in 10.0 mi Variable 5.8 mph - N/A   Partly Cloudy
3:33 PM 33.8 °F 28.6 °F 28.4 °F 81% 30.13 in 10.0 mi Variable 5.8 mph - N/A   Mostly Cloudy
3:56 PM 32.0 °F 26.4 °F 28.9 °F 88% 30.23 in 10.0 mi Variable 5.8 mph - N/A   Overcast
4:56 PM 30.9 °F 25.2 °F 28.9 °F 92% 30.25 in 10.0 mi Variable 5.8 mph - N/A   Mostly Cloudy
5:08 PM 30.2 °F 22.6 °F 28.4 °F 93% 30.15 in 10.0 mi North 8.1 mph - N/A   Mostly Cloudy
5:56 PM 30.0 °F 23.2 °F 28.0 °F 92% 30.26 in 10.0 mi Variable 6.9 mph 23.0 mph N/A   Mostly Cloudy
6:45 PM 30.2 °F 20.2 °F 28.4 °F 93% 30.16 in 10.0 mi North 12.7 mph 19.6 mph N/A   Scattered Clouds
6:56 PM 30.0 °F 19.5 °F 28.0 °F 92% 30.26 in 10.0 mi North 13.8 mph 20.7 mph N/A   Partly Cloudy
7:56 PM 30.0 °F 19.5 °F 28.0 °F 92% 30.26 in 10.0 mi North 13.8 mph 26.5 mph N/A   Partly Cloudy
8:25 PM 30.2 °F 20.8 °F 28.4 °F 93% 30.15 in 10.0 mi North 11.5 mph 20.7 mph N/A   Mostly Cloudy
8:56 PM 30.0 °F 19.5 °F 28.0 °F 92% 30.26 in 10.0 mi North 13.8 mph 21.9 mph N/A   Mostly Cloudy
9:11 PM 30.2 °F 20.2 °F 28.4 °F 93% 30.16 in 10.0 mi North 12.7 mph 18.4 mph N/A   Mostly Cloudy
9:27 PM 30.2 °F 21.3 °F 28.4 °F 93% 30.16 in 7.0 mi NNE 10.4 mph 21.9 mph N/A   Overcast
9:39 PM 30.2 °F 20.8 °F 28.4 °F 93% 30.16 in 5.0 mi North 11.5 mph 21.9 mph N/A   Mostly Cloudy
9:44 PM 28.4 °F 19.1 °F 28.4 °F 100% 30.16 in 2.5 mi North 10.4 mph 20.7 mph N/A   Mostly Cloudy
9:47 PM 28.4 °F 19.1 °F 28.4 °F 100% 30.16 in 1.2 mi North 10.4 mph - N/A   Mostly Cloudy
9:56 PM 28.9 °F 20.4 °F 28.0 °F 96% 30.25 in 0.5 mi North 9.2 mph - N/A Fog Light Freezing Fog
10:07 PM 28.4 °F 20.4 °F 28.4 °F 100% 30.16 in 0.2 mi North 8.1 mph - N/A Fog Light Freezing Fog
10:56 PM 28.9 °F 19.2 °F 28.0 °F 96% 30.25 in 0.2 mi North 11.5 mph - N/A Fog Light Freezing Fog
11:20 PM 28.4 °F 17.5 °F 28.4 °F 100% 30.15 in 1.0 mi North 13.8 mph 20.7 mph N/A   Mist
11:37 PM 28.4 °F 18.0 °F 28.4 °F 100% 30.15 in 0.5 mi North 12.7 mph 21.9 mph N/A Fog Light Freezing Fog
11:46 PM 28.4 °F 19.7 °F 28.4 °F 100% 30.15 in 0.2 mi North 9.2 mph 20.7 mph N/A Fog Light Freezing Fog
11:56 PM 30.0 °F 22.4 °F 28.0 °F 92% 30.25 in 0.2 mi North 8.1 mph 20.7 mph N/A Fog Light Freezing Fog